Location: Lane
(33.5226°N, 79.8788°W)
Time: 06:03:57
(UTC+00:00)

Tiros 1 - Pass Details

Date: 04 October 2022
Orbit: 629 x 662 km, 48.4° (Epoch: 09 December)

Event Time Altitude Azimuth Distance (km) Brightness Sun altitude
Exits shadow 08:37:53 19° 25° (NNE) 1,542 9.4 -33.3°
Drops below altitude 10° 08:40:55 10° 65° (ENE) 2,046 10.5 -32.7°
Sets 08:43:50 0° 83° (E) 2,947 11.6 -32.2°
